パンスターズ彗星

C/2015 D3 ( PanSTARRS )

English version
Home page
Updated on April 1, 2017

---------------------------------------------------------------------

・ プロフィール

発見日 2015年2月19日
発見光度 20.4等
発見者 Pan-STARRS 1 telescope (Haleakala)

・ 写真集

・ 軌道要素

Epoch 2016 May 12.0 TT = JDT 2457520.5
T 2016 Apr. 30.75462 TT                                 MPCW
q   8.1488339            (2000.0)            P               Q
z  -0.0003094      Peri.    2.84785     -0.90713776     +0.28890841
 +/-0.0000013      Node   156.98046     +0.36899155     +0.19642160
e   1.0025214      Incl.  128.50940     +0.20235199     +0.93699012
From 217 observations 2015 Feb. 17-2017 Feb. 24, mean residual 0".5.

・ 光度変化

        m1 = 5.5 + 5 logΔ + 10.0 log r

---------------------------------------------------------------------

軌道要素はM.P.E.C. 2017-E59に掲載されたものです。
光度グラフはComet for Windowsで作成したものです。

---------------------------------------------------------------------

Copyright(C) Seiichi Yoshida (comet@aerith.net). All rights reserved.